[[{"header":{"parameterUnit":"m.s-1","parameterCategory":2,"la1":30.2992,"la2":30.254,"lo1":-89.0895,"lo2":-89.0443,"dy":0.0025,"dx":0.0025,"nx":19,"ny":19,"refTime":"2026-03-13T21:00:00:Z","depth":"0","parameterNumber":2,"parameterNumberName":"U-component_of_CURRENTS"},"data":[0,0,0,0.2101,0.2102,0.2135,0.2135,0.2174,0.2175,0,0,0,0,0,0,0,0,0,0,0,0.2085,0.2085,0.21,0.2102,0.2135,0.2135,0.2174,0.2175,0,0,0,0,0,0,0,0,0,0,0,0.2084,0.2085,0.2085,0.2102,0.2135,0.2135,0.2174,0.2148,0,0,0,0,0,0,0,0,0,0,0.2115,0.2099,0.2085,0.2085,0.2102,0.2135,0.2135,0.2146,0.2149,0.2161,0,0.217,0,0.2179,0.2178,0.2178,0,0,0,0.2093,0.2097,0.2113,0.2085,0.2102,0.2135,0.2117,0.2148,0.2151,0.2165,0.217,0.2172,0.218,0.2178,0.2178,0.2245,0.2246,0,0,0.2091,0.2083,0.2111,0.2115,0.2117,0.2116,0.2119,0.215,0.2152,0.2171,0.2173,0.2181,0.2179,0.2179,0.2245,0.2246,0,0,0,0.2092,0.2082,0.2097,0.2113,0.2123,0.2118,0.212,0.215,0.2157,0.2174,0.2181,0.2179,0.2179,0.2245,0.2245,0.2264,0,0,0,0.209,0.2083,0.2096,0.2091,0.2123,0.2137,0.2119,0.2155,0.2159,0.2181,0.2179,0.218,0.2244,0.2245,0.2263,0.2284,0,0,0,0.2082,0.2082,0.2089,0.209,0.211,0.2137,0.2145,0.2156,0.2164,0.2178,0.218,0.2244,0.2245,0.2261,0.2281,0.2319,0,0,0,0.2068,0.2074,0.2089,0.21,0.211,0.2142,0.2145,0.2164,0.2177,0.2179,0.2244,0.2245,0.2261,0.228,0.2317,0.2283,0.2288,0,0,0.2065,0.2073,0.2081,0.2095,0.2123,0.2137,0.2171,0.2185,0.2195,0.2231,0.2233,0.2263,0.2281,0.2319,0.2332,0.2336,0,0,0,0.2074,0.2077,0.209,0.211,0.214,0.2176,0.2191,0.2212,0.2247,0.2209,0.2275,0.2287,0.231,0.2285,0.2289,0.2273,0.2249,0.2249,0.2249,0.2048,0.2071,0.2082,0.2115,0.2145,0.2201,0.2238,0.2273,0.2267,0.2292,0.2311,0.2365,0.2339,0.2341,0.2326,0.2314,0.2314,0.2314,0.2314,0.2031,0.2029,0.2072,0.2087,0.2145,0.2181,0.2282,0.2304,0.2372,0.235,0.2371,0.2317,0.2346,0.2328,0.2315,0.2315,0.2315,0.2315,0.2315,0.1994,0.1995,0.201,0.2042,0.2095,0.2174,0.2258,0.2335,0.2396,0.2428,0.2404,0.2403,0.2381,0.2433,0.2433,0.2434,0.2434,0.2434,0.2434,0.194,0.1959,0.1956,0.1999,0.202,0.2102,0.2246,0.2319,0.2412,0.2439,0.2438,0.24,0.2402,0.239,0.2438,0.2438,0.2437,0.2437,0.2436,0.189,0.1898,0.1895,0.1905,0.1955,0.1978,0.2143,0.2282,0.2376,0.2417,0.2433,0.2448,0.2444,0.244,0.243,0.2486,0.2486,0.2486,0.2486,0.185,0.1856,0.1835,0.1834,0.1858,0.1923,0.1962,0.212,0.2315,0.2384,0.2446,0.2396,0.2395,0.2386,0.2383,0.2371,0.2411,0.2411,0.2411,0.1821,0.1823,0.1787,0.1784,0.1796,0.183,0.1821,0.1917,0.2221,0.2408,0.2436,0.2439,0.2366,0.2365,0.2347,0.2345,0.2323,0,0]},{"header":{"parameterUnit":"m.s-1","parameterCategory":2,"la1":30.2992,"la2":30.254,"lo1":-89.0895,"lo2":-89.0443,"dy":0.0025,"dx":0.0025,"nx":19,"ny":19,"refTime":"2026-03-13T21:00:00:Z","depth":"0","parameterNumber":3,"parameterNumberName":"V-component_of_CURRENTS"},"data":[0,0,0,0.0236,0.0236,0.0203,0.0202,0.0142,0.0142,0,0,0,0,0,0,0,0,0,0,0,0.0246,0.0246,0.0236,0.0236,0.0203,0.0202,0.0143,0.0142,0,0,0,0,0,0,0,0,0,0,0,0.0246,0.0246,0.0246,0.0236,0.0203,0.0202,0.0143,0.017,0,0,0,0,0,0,0,0,0,0,0.0203,0.022,0.0246,0.0246,0.0235,0.0203,0.0202,0.0171,0.0168,0.0155,0,0.0156,0,0.0152,0.0138,0.0138,0,0,0,0.0226,0.0223,0.0214,0.0246,0.0235,0.0203,0.0215,0.0169,0.0166,0.0151,0.0155,0.0153,0.0151,0.0138,0.0138,0.0142,0.0142,0,0,0.0228,0.0237,0.0217,0.0212,0.0234,0.0216,0.0214,0.0167,0.0166,0.0155,0.0152,0.015,0.0138,0.0137,0.0141,0.0142,0,0,0,0.024,0.0239,0.0231,0.0215,0.0212,0.0215,0.0213,0.0168,0.0166,0.0151,0.0149,0.0137,0.0137,0.0141,0.0142,0.0226,0,0,0,0.024,0.0246,0.0232,0.0237,0.0214,0.0193,0.0215,0.0169,0.0164,0.015,0.0137,0.0136,0.014,0.0141,0.0223,0.0273,0,0,0,0.0247,0.0247,0.0245,0.0238,0.0228,0.0194,0.0189,0.0168,0.0163,0.0138,0.0136,0.014,0.0141,0.022,0.0267,0.0312,0,0,0,0.0253,0.0273,0.0246,0.0269,0.0228,0.0241,0.0189,0.0185,0.017,0.0137,0.0141,0.0142,0.0219,0.0264,0.0309,0.0381,0.0403,0,0,0.0287,0.0277,0.0293,0.0269,0.0303,0.0244,0.0275,0.0226,0.018,0.0151,0.0151,0.0224,0.0267,0.0312,0.0441,0.0462,0,0,0,0.031,0.0324,0.0329,0.034,0.0332,0.0336,0.0284,0.0262,0.0236,0.0177,0.0221,0.0246,0.0272,0.0307,0.0324,0.0276,0.0146,0.0146,0.0146,0.0367,0.0369,0.0407,0.041,0.0413,0.0395,0.0393,0.0353,0.0292,0.0295,0.0313,0.0403,0.0442,0.0456,0.0405,0.0302,0.0303,0.0303,0.0303,0.0435,0.0462,0.0467,0.0501,0.05,0.0515,0.0495,0.0463,0.0454,0.0387,0.0407,0.0392,0.0479,0.0418,0.0308,0.0308,0.0307,0.0306,0.0306,0.0473,0.049,0.0507,0.056,0.0605,0.0602,0.067,0.062,0.0548,0.0565,0.0581,0.058,0.0528,0.0568,0.0568,0.0569,0.0569,0.0569,0.057,0.0503,0.0526,0.0579,0.063,0.0678,0.0748,0.0771,0.0781,0.0751,0.0692,0.0692,0.0564,0.0484,0.0475,0.0576,0.0575,0.0574,0.0574,0.0573,0.0554,0.0562,0.0648,0.0702,0.0828,0.0947,0.0963,0.1004,0.0974,0.0974,0.0776,0.0751,0.0732,0.0718,0.0714,0.0871,0.0871,0.0871,0.0871,0.0586,0.0597,0.072,0.0827,0.0954,0.1046,0.1202,0.1216,0.1063,0.0969,0.087,0.0816,0.0806,0.0785,0.077,0.0764,0.093,0.093,0.093,0.0628,0.0663,0.0759,0.0864,0.1013,0.1159,0.1314,0.1396,0.1152,0.0922,0.0792,0.079,0.0694,0.0682,0.0629,0.0611,0.0594,0,0]}],[{"header":{"parameterUnit":"m.s-1","parameterCategory":2,"la1":30.2992,"la2":30.254,"lo1":-89.0895,"lo2":-89.0443,"dy":0.0025,"dx":0.0025,"nx":19,"ny":19,"refTime":"2026-03-13T21:00:00:Z","depth":"2","parameterNumber":2,"parameterNumberName":"U-component_of_CURRENTS"},"data":[0,0,0,0.2081,0.2083,0.2124,0.2124,0.2168,0.2168,0,0,0,0,0,0,0,0,0,0,0,0.2064,0.2064,0.2081,0.2083,0.2124,0.2124,0.2167,0.2168,0,0,0,0,0,0,0,0,0,0,0,0.2064,0.2064,0.2065,0.2083,0.2123,0.2124,0.2167,0.2137,0,0,0,0,0,0,0,0,0,0,0.2097,0.2082,0.2064,0.2065,0.2083,0.2123,0.2124,0.2135,0.2139,0.2149,0,0.216,0,0.217,0.2171,0.2172,0,0,0,0.2075,0.2079,0.2096,0.2065,0.2084,0.2123,0.2103,0.2137,0.2141,0.2153,0.2161,0.2163,0.2171,0.2172,0.2172,0.224,0.224,0,0,0.2073,0.2065,0.2093,0.2098,0.2101,0.2102,0.2104,0.2139,0.2143,0.2161,0.2164,0.2172,0.2172,0.2172,0.2239,0.224,0,0,0,0.2071,0.2063,0.2079,0.2096,0.2108,0.2103,0.2106,0.2141,0.2148,0.2164,0.2172,0.2172,0.2173,0.2239,0.224,0.2259,0,0,0,0.207,0.2063,0.2078,0.2073,0.2107,0.2126,0.2107,0.2145,0.215,0.2172,0.2172,0.2174,0.2239,0.2239,0.2257,0.2278,0,0,0,0.2061,0.2062,0.207,0.2073,0.2095,0.2125,0.2134,0.2146,0.2155,0.2172,0.2174,0.2238,0.2239,0.2256,0.2275,0.2313,0,0,0,0.2047,0.2055,0.207,0.2084,0.2095,0.2129,0.2134,0.2157,0.2171,0.2173,0.2239,0.2239,0.2256,0.2274,0.2311,0.2262,0.2266,0,0,0.2046,0.2054,0.2063,0.2078,0.2107,0.2123,0.2159,0.2177,0.2188,0.2224,0.2226,0.2258,0.2275,0.2312,0.2311,0.2313,0,0,0,0.2056,0.2061,0.2073,0.2095,0.2126,0.2163,0.2181,0.2203,0.2241,0.2203,0.227,0.2281,0.2303,0.227,0.2273,0.2243,0.2243,0.2243,0.2243,0.2034,0.2056,0.2069,0.2102,0.2133,0.219,0.2227,0.2263,0.226,0.2286,0.2304,0.2358,0.2323,0.2324,0.2307,0.2307,0.2307,0.2308,0.2308,0.202,0.202,0.2062,0.2079,0.2136,0.2174,0.2271,0.2295,0.2363,0.2343,0.2363,0.2302,0.2328,0.2309,0.2309,0.2309,0.2309,0.2308,0.2308,0.1986,0.1988,0.2004,0.2038,0.2092,0.217,0.2252,0.2328,0.2387,0.2418,0.2387,0.2386,0.2376,0.2426,0.2426,0.2426,0.2427,0.2427,0.2427,0.1935,0.1954,0.1954,0.1999,0.2021,0.2103,0.2243,0.2312,0.2397,0.242,0.2419,0.2399,0.2395,0.2384,0.2431,0.243,0.243,0.2429,0.2429,0.1888,0.1896,0.1896,0.1909,0.196,0.198,0.214,0.2265,0.2356,0.2389,0.2424,0.2422,0.2417,0.2414,0.2403,0.2453,0.2453,0.2453,0.2453,0.1849,0.1856,0.1839,0.1841,0.1866,0.1925,0.1943,0.2045,0.2214,0.2265,0.2272,0.2209,0.2213,0.2193,0.2194,0.2178,0.2169,0.2169,0.2168,0.1821,0.1824,0.1792,0.1793,0.1806,0.1831,0.1785,0.1748,0.191,0.2152,0.2174,0.2444,0.237,0.2369,0.2352,0.2349,0.2328,0,0]},{"header":{"parameterUnit":"m.s-1","parameterCategory":2,"la1":30.2992,"la2":30.254,"lo1":-89.0895,"lo2":-89.0443,"dy":0.0025,"dx":0.0025,"nx":19,"ny":19,"refTime":"2026-03-13T21:00:00:Z","depth":"2","parameterNumber":3,"parameterNumberName":"V-component_of_CURRENTS"},"data":[0,0,0,0.0158,0.0158,0.0129,0.0129,0.007,0.0069,0,0,0,0,0,0,0,0,0,0,0,0.0167,0.0167,0.0158,0.0158,0.0129,0.0129,0.007,0.0069,0,0,0,0,0,0,0,0,0,0,0,0.0167,0.0167,0.0167,0.0158,0.0129,0.0129,0.007,0.0095,0,0,0,0,0,0,0,0,0,0,0.0124,0.0141,0.0167,0.0167,0.0158,0.0129,0.0129,0.0096,0.0093,0.0079,0,0.0081,0,0.0078,0.0066,0.0066,0,0,0,0.0148,0.0144,0.0136,0.0167,0.0158,0.0129,0.0139,0.0095,0.0091,0.0076,0.008,0.0078,0.0077,0.0065,0.0065,0.0067,0.0068,0,0,0.015,0.0159,0.0139,0.0134,0.0158,0.014,0.0139,0.0093,0.0092,0.008,0.0077,0.0076,0.0065,0.0065,0.0067,0.0068,0,0,0,0.0161,0.016,0.0153,0.0137,0.0136,0.014,0.0138,0.0094,0.0092,0.0076,0.0076,0.0065,0.0064,0.0067,0.0067,0.015,0,0,0,0.0161,0.0167,0.0154,0.0159,0.0137,0.0118,0.014,0.0095,0.009,0.0076,0.0065,0.0064,0.0066,0.0067,0.0146,0.0195,0,0,0,0.0167,0.0168,0.0167,0.016,0.0152,0.0119,0.0114,0.0094,0.009,0.0065,0.0063,0.0066,0.0067,0.0144,0.019,0.0229,0,0,0,0.0173,0.0192,0.0167,0.019,0.0152,0.0164,0.0115,0.0111,0.0097,0.0064,0.0066,0.0067,0.0143,0.0186,0.0226,0.028,0.03,0,0,0.0205,0.0196,0.0211,0.0189,0.0222,0.0167,0.0196,0.015,0.0106,0.0076,0.0077,0.0147,0.0189,0.0228,0.0338,0.0357,0,0,0,0.0227,0.0241,0.0246,0.0257,0.0249,0.0254,0.0205,0.0184,0.016,0.0103,0.0145,0.0169,0.0191,0.0216,0.0231,0.0072,0.0072,0.0072,0.0072,0.0281,0.0283,0.032,0.0324,0.0327,0.031,0.0308,0.027,0.0213,0.0216,0.0234,0.0319,0.0347,0.0358,0.0223,0.0223,0.0224,0.0224,0.0224,0.0346,0.0372,0.0377,0.0412,0.0411,0.0426,0.0405,0.0375,0.0367,0.0306,0.0322,0.0299,0.038,0.0231,0.0229,0.0229,0.0228,0.0227,0.0227,0.0384,0.04,0.0418,0.047,0.0514,0.0511,0.0574,0.0528,0.0458,0.0473,0.0478,0.0476,0.0372,0.0475,0.0476,0.0476,0.0476,0.0477,0.0477,0.0413,0.0436,0.0489,0.0539,0.0585,0.0652,0.0674,0.0679,0.0644,0.0584,0.0583,0.0403,0.0395,0.0386,0.0483,0.0482,0.0481,0.0481,0.048,0.0462,0.0471,0.0555,0.0609,0.0729,0.0836,0.0852,0.0878,0.0846,0.0838,0.0637,0.0631,0.061,0.0597,0.0593,0.0737,0.0737,0.0737,0.0737,0.0492,0.0504,0.0625,0.0727,0.0847,0.0927,0.1048,0.1017,0.0901,0.0798,0.0795,0.0747,0.0737,0.0717,0.0701,0.0697,0.0869,0.0869,0.0869,0.0531,0.0566,0.0659,0.0762,0.0901,0.1027,0.1128,0.1077,0.0895,0.087,0.0774,0.0755,0.0674,0.0661,0.0616,0.0597,0.0584,0,0]}],[{"header":{"parameterUnit":"m.s-1","parameterCategory":2,"la1":30.2992,"la2":30.254,"lo1":-89.0895,"lo2":-89.0443,"dy":0.0025,"dx":0.0025,"nx":19,"ny":19,"refTime":"2026-03-13T21:00:00:Z","depth":"4","parameterNumber":2,"parameterNumberName":"U-component_of_CURRENTS"},"data":[0,0,0,0.1467,0.147,0.1605,0.1606,0.1711,0.1712,0,0,0,0,0,0,0,0,0,0,0,0.1425,0.1426,0.1467,0.147,0.1605,0.1606,0.1711,0.1712,0,0,0,0,0,0,0,0,0,0,0,0.1425,0.1426,0.1427,0.1471,0.1605,0.1606,0.1711,0.1625,0,0,0,0,0,0,0,0,0,0,0.1502,0.1478,0.1426,0.1428,0.1471,0.1605,0.1606,0.1622,0.163,0.1631,0,0.1664,0,0.1688,0.1717,0.1718,0,0,0,0.1468,0.1471,0.1503,0.1428,0.1473,0.1605,0.1544,0.1627,0.1637,0.1642,0.1665,0.167,0.169,0.1718,0.1718,0.1818,0.1819,0,0,0.1461,0.1451,0.1497,0.151,0.1522,0.1539,0.1548,0.1634,0.165,0.1666,0.1673,0.1692,0.1719,0.1719,0.1818,0.1818,0,0,0,0.1441,0.1445,0.1477,0.1505,0.1534,0.1543,0.1553,0.1647,0.1657,0.1674,0.1693,0.1719,0.172,0.1817,0.1818,0.1845,0,0,0,0.1436,0.1434,0.1474,0.1469,0.1533,0.1603,0.1564,0.1651,0.1662,0.1692,0.1719,0.1721,0.1817,0.1818,0.1843,0.1858,0,0,0,0.1416,0.1431,0.1451,0.1468,0.1527,0.1602,0.1618,0.1655,0.1673,0.1718,0.1721,0.1816,0.1818,0.1842,0.1855,0.1889,0,0,0,0.1395,0.142,0.1451,0.1489,0.1526,0.1597,0.1618,0.1683,0.1723,0.172,0.1817,0.1818,0.1841,0.1853,0.1887,0.1653,0,0,0,0.1404,0.1421,0.1441,0.1471,0.153,0.1577,0.1647,0.1713,0.1738,0.1782,0.1785,0.1844,0.1855,0.1889,0.172,0,0,0,0,0.1428,0.1446,0.1469,0.1518,0.1573,0.1642,0.1705,0.1741,0.1814,0.1769,0.1859,0.1865,0.1885,0.1744,0.1823,0.1823,0.1823,0.1823,0.1823,0.1413,0.1447,0.1485,0.1541,0.1596,0.1693,0.1753,0.1816,0.1832,0.1876,0.1898,0.1957,0.1809,0.1909,0.1909,0.1909,0.1909,0.1909,0.1909,0.1408,0.142,0.1492,0.1543,0.1626,0.1699,0.1815,0.1858,0.1947,0.194,0.1959,0.1795,0.1912,0.1912,0.1911,0.1911,0.1911,0.191,0.191,0.137,0.1379,0.1434,0.1515,0.1612,0.1719,0.1808,0.1906,0.1977,0.2011,0.187,0.1985,0.1971,0.2029,0.2029,0.2029,0.2029,0.2029,0.203,0.1297,0.1349,0.1391,0.1488,0.1547,0.1656,0.1819,0.1874,0.197,0.1884,0.203,0.1998,0.1994,0.1978,0.2033,0.2032,0.2032,0.2032,0.2031,0.1231,0.1271,0.1315,0.1371,0.1485,0.154,0.172,0.1771,0.1812,0.1793,0.1813,0.1823,0.1794,0.1795,0.1771,0.1767,0.1764,0.1762,0,0.1177,0.1201,0.125,0.1298,0.1345,0.1466,0.1464,0.1557,0.1644,0.1584,0.1828,0.1849,0.1855,0.1821,0.1818,0.1788,0,0,0,0.1137,0.1161,0.1167,0.1228,0.1266,0.1327,0.1455,0.1432,0.1621,0.1599,0.1691,0.171,0.1914,0.2043,0.2023,0.2019,0.1993,0,0]},{"header":{"parameterUnit":"m.s-1","parameterCategory":2,"la1":30.2992,"la2":30.254,"lo1":-89.0895,"lo2":-89.0443,"dy":0.0025,"dx":0.0025,"nx":19,"ny":19,"refTime":"2026-03-13T21:00:00:Z","depth":"4","parameterNumber":3,"parameterNumberName":"V-component_of_CURRENTS"},"data":[0,0,0,0.0076,0.0076,0.0058,0.0058,0.0012,0.0012,0,0,0,0,0,0,0,0,0,0,0,0.0081,0.0081,0.0076,0.0076,0.0058,0.0058,0.0012,0.0012,0,0,0,0,0,0,0,0,0,0,0,0.0081,0.0081,0.0081,0.0076,0.0058,0.0058,0.0012,0.003,0,0,0,0,0,0,0,0,0,0,0.0049,0.0061,0.0081,0.0081,0.0076,0.0058,0.0058,0.0031,0.0029,0.0017,0,0.0019,0,0.0018,0.0009,0.0009,0,0,0,0.0068,0.0063,0.0058,0.0081,0.0076,0.0058,0.0064,0.003,0.0027,0.0014,0.0018,0.0017,0.0018,0.0009,0.0009,0.0012,0.0012,0,0,0.0069,0.0074,0.006,0.0057,0.0077,0.0064,0.0063,0.0028,0.0028,0.0018,0.0016,0.0017,0.0009,0.0008,0.0011,0.0012,0,0,0,0.0077,0.0075,0.0072,0.0059,0.006,0.0064,0.0063,0.0029,0.0028,0.0016,0.0016,0.0008,0.0008,0.0011,0.0011,0.0076,0,0,0,0.0077,0.0081,0.0072,0.0075,0.0061,0.0048,0.0064,0.0031,0.0027,0.0017,0.0008,0.0007,0.0011,0.0011,0.0073,0.0111,0,0,0,0.008,0.0081,0.0081,0.0076,0.0072,0.0049,0.0045,0.003,0.0028,0.0009,0.0007,0.001,0.0011,0.0071,0.0107,0.0128,0,0,0,0.0084,0.0096,0.0081,0.0098,0.0072,0.0083,0.0046,0.0044,0.0033,0.0008,0.0011,0.0011,0.007,0.0104,0.0125,0.0133,0,0,0,0.0102,0.0098,0.0109,0.0096,0.0123,0.0085,0.0109,0.0074,0.0041,0.0018,0.0018,0.0074,0.0107,0.0127,0.018,0,0,0,0,0.0118,0.0128,0.0133,0.0145,0.0143,0.015,0.0116,0.0101,0.0083,0.0039,0.0073,0.0091,0.0102,0.0099,0.0015,0.0015,0.0015,0.0015,0.0015,0.0147,0.0155,0.0183,0.0193,0.0199,0.0193,0.0193,0.0166,0.0124,0.0128,0.0142,0.0202,0.0201,0.0134,0.0135,0.0135,0.0135,0.0135,0.0135,0.0189,0.0208,0.0223,0.0253,0.0263,0.0279,0.0268,0.0247,0.0241,0.0199,0.0205,0.0166,0.0142,0.0141,0.014,0.0139,0.0138,0.0138,0.0138,0.0209,0.022,0.0243,0.0292,0.0336,0.0344,0.039,0.0364,0.031,0.032,0.0297,0.0245,0.024,0.0317,0.0318,0.0318,0.0318,0.0318,0.0319,0.0216,0.0241,0.0285,0.0337,0.0381,0.0439,0.0466,0.0463,0.0415,0.0379,0.034,0.0263,0.0257,0.025,0.0323,0.0322,0.0322,0.0321,0.0321,0.0232,0.0249,0.0314,0.0363,0.0468,0.0513,0.0549,0.0534,0.0526,0.0487,0.0398,0.0393,0.0369,0.036,0.0355,0.0463,0.0463,0.0463,0,0.024,0.0254,0.0344,0.0425,0.0513,0.0558,0.0588,0.0582,0.0508,0.0495,0.0494,0.0393,0.0389,0.0359,0.0352,0.0346,0,0,0,0.0252,0.0281,0.0342,0.0428,0.0529,0.0568,0.0595,0.0579,0.0527,0.0524,0.0473,0.047,0.0406,0.0336,0.0286,0.0278,0.0264,0,0]}]]